Tracking 19909 objects as of 21-Oct-2019
HD Live streaming from Space Station
objects crossing your sky now

SL-8 DEB

Track SL-8 DEB now!
10-day predictions


NORAD ID: 21955
Int'l Code: 1991-009CF
Perigee: 1,521.3 km
Apogee: 1,783.3 km
Inclination: 74.3 °
Period: 119.2 minutes
Semi major axis: 8023 km
RCS: 0.0532 m2 (small)
Launch date: February 12, 1991
Source: Commonwealth of Independent States (former USSR) (CIS)
Launch site: PLESETSK MISSILE AND SPACE COMPLEX (PKMTR)

Note: This is SATELLITE DEBRIS
aabbcc
Your satellite tracking list
Your tracking list is empty




NASA's NSSDC Master Catalog

Two Line Element Set (TLE):
1 21955U 91009CF  19290.61302573 -.00000322  00000-0 -33268-2 0  9992
2 21955  74.3004 150.2366 0163236 254.9222 138.3966 12.08019808261509
Source of the keplerian elements: AFSPC